Location: Azul
(36.7830°S, 59.8500°W)
Time: 10:54:09
(UTC-03:00)

BEESAT 3 - Pass Details

Date: 23 October 2021
Orbit: 477 x 511 km, 64.9° (Epoch: 28 November)

Event Time Altitude Azimuth Distance (km) Brightness Sun altitude
Rises 05:27:04 0° 215° (SW) 2,570 ? -7.9°
Reaches altitude 10° 05:29:16 10° 220° (SW) 1,680 ? -7.5°
Maximum altitude 05:32:54 52° 296° (WNW) 609 ? -6.8°
Drops below altitude 10° 05:36:30 10° 13° (NNE) 1,654 ? -6.2°
Sets 05:38:39 0° 18° (NNE) 2,526 ? -5.7°
